Regional Weather Roundup
Issued by NWS

Home | Current Version | Previous Version | Graphics & Text | Print | Product List | Glossary On
Versions: 1 2 3 4 5 6 7 8 9 10 11 12 13 14 15 16 17 18 19 20 21 22 23 24 25 26 27 28 29 30 31 32 33 34 35 36 37 38 39 40 41 42 43 44 45 46 47 48 49 50
000
ASUS43 KOAX 260702
RWRNE

WEATHER ROUNDUP FOR NEBRASKA
NATIONAL WEATHER SERVICE OMAHA NE
100 AM CST FRI DEC 26 2014

NOTES: SATELLITE DATA IS BEING USED TO AUGMENT CLOUD COVER ABOVE
       12000 FEET.
       "FAIR" INDICATES FEW OR NO CLOUDS BELOW 12,000 FEET WITH NO
       SIGNIFICANT WEATHER AND/OR OBSTRUCTIONS TO VISIBILITY.

  * THESE STATIONS DO NOT REPORT WEATHER SUCH AS RAIN...SNOW OR FOG.

NEZ001>004-019>022-054>056-260800-
NEBRASKA PANHANDLE

CITY           SKY/WX    TMP DP  RH WIND       PRES   REMARKS
SCOTTSBLUFF    LGT SNOW  22  19  89 W5        29.95R FOG     WCI  16
ALLIANCE       LGT SNOW  22  19  89 N10       29.91R FOG     WCI  11
CHADRON        CLOUDY    22  17  81 N16       29.99R WCI   8
SIDNEY         LGT SNOW  21  18  88 N10       29.89S FOG     WCI  10
$$

NEZ057>060-069>072-079>082-260800-
SOUTHWEST NEBRASKA

CITY           SKY/WX    TMP DP  RH WIND       PRES   REMARKS
NORTH PLATTE   FRZ RAIN  26  23  88 N12G25    29.88F FOG     WCI  16
IMPERIAL       CLOUDY    25  22  88 N17       29.88R WCI  12
LEXINGTON      CLOUDY    29  26  87 N17       29.84R WCI  17
MCCOOK         CLOUDY    30  23  75 N15       29.86R WCI  19
$$

NEZ005>010-023>029-035>040-094-260800-
NORTH CENTRAL NEBRASKA

CITY           SKY/WX    TMP DP  RH WIND       PRES   REMARKS
VALENTINE      CLOUDY    24  20  84 N16G24    29.93F WCI  11
AINSWORTH      CLOUDY    24  21  91 N18G28    29.90R WCI   9
BROKEN BOW     CLOUDY    27  23  85 N22G31    29.85S WCI  13
ORD            CLOUDY    27  24  89 N17       29.85R WCI  14
$$

NEZ041-046>049-061>064-073>077-083>087-260800-
SOUTH CENTRAL NEBRASKA

CITY           SKY/WX    TMP DP  RH WIND       PRES   REMARKS
GRAND ISLAND   CLOUDY    29  28  96 N17G29    29.83R FOG     WCI  17
AURORA         CLOUDY    33  32  96 N21       29.80R WCI  20
HASTINGS       CLOUDY    31  28  89 N20G30    29.79R WCI  19
HEBRON         CLEAR     31  28  89 N8        29.77R WCI  24
KEARNEY *      CLOUDY    28  25  86 NW21      29.83R WCI  15
$$

NEZ011>018-030>034-042>045-260800-
NORTHEAST NEBRASKA

CITY           SKY/WX    TMP DP  RH WIND       PRES   REMARKS
NORFOLK        CLOUDY    31  30  96 N21       29.83R FOG     WCI  18
ALBION         CLOUDY    29  27  90 N17       29.83R FOG     WCI  17
BLAIR          CLEAR     32  30  93 N12       29.74S WCI  23
COLUMBUS *     CLOUDY    32  27  80 N15G25    29.82R WCI  22
TEKAMAH        CLEAR     33  30  88 N14       29.78R WCI  23
$$

NEZ050>053-065>068-078-088>093-260800-
SOUTHEAST NEBRASKA

CITY           SKY/WX    TMP DP  RH WIND       PRES   REMARKS
LINCOLN        CLEAR     31  28  89 N12       29.78R WCI  22
OMAHA EPPLEY   CLEAR     31  29  92 N12       29.77R WCI  22
BEATRICE       CLEAR     28  26  92 W6        29.74R WCI  22
FALLS CITY     CLEAR     36  28  73 S8        29.75R WCI  30
NEBRASKA CITY  CLEAR     35  28  77 S8        29.73S WCI  28
$$

NEZ044-045-051>053-067-260800-
OMAHA AREA

CITY           SKY/WX    TMP DP  RH WIND       PRES   REMARKS
OMAHA EPPLEY   CLEAR     31  29  92 N12       29.77R WCI  22
BLAIR          CLEAR     32  30  93 N12       29.74S WCI  23
OFFUTT AFB     CLEAR     30  28  91 NW5       29.74R WCI  25
WAHOO          FAIR      31  29  90 N16       29.78R WCI  20
$$


USA.gov is the U.S. government's official web portal to all federal, state and local government web resources and services.